Park Rapids, MN

7:59 PM CDT on March 27, 2017 (GMT -0500)
Park Rapids Municipal

Weather History for KPKD - April, 2013

Change the Weather History Date:

Wednesday, April 24, 2013

  Actual Average Record
Temperature  
Mean Temperature 26 °F -  
Max Temperature 39 °F 61 °F 83 °F (1962)
Min Temperature 15 °F 33 °F 13 °F (1956)
Degree Days  
Heating Degree Days 39    
Moisture  
Dew Point 24 °F    
Average Humidity 82    
Maximum Humidity 93    
Minimum Humidity 62    
Precipitation  
Precipitation 0.02 in - - ()
Sea Level Pressure  
Sea Level Pressure 29.94 in    
Wind  
Wind Speed 4 mph (WSW)    
Max Wind Speed 15 mph    
Max Gust Speed 26 mph    
Visibility 7 miles    
Events Fog , Snow    
Averages and records for this station are not official NWS values.
T = Trace of Precipitation, MM = Missing Value Source: NWS Daily Summary

Daily Weather History Graph

Daily Weather History Graph

Search for Another Location

Airport or City:

Trip Planner

Search our weather history database for the weather conditions in past years. The results will help you decide how hot, cold, wet, or windy it might be!

Date:

Astronomy

Apr. 24, 2013 Rise Set
Actual Time 6:16 AM CDT 8:21 PM CDT
Civil Twilight 5:43 AM CDT 8:54 PM CDT
Nautical Twilight 5:02 AM CDT 9:35 PM CDT
Astronomical Twilight 4:17 AM CDT 10:21 PM CDT
Moon 7:23 PM CDT (4/24) 5:24 AM CDT (4/24)
Length of Visible Light 15h 11m
Length of Day
14h 05m
Waxing Gibbous, 98% of the Moon is Illuminated
Apr 24
Waxing Gibbous
Apr 25
Full
May 2
Last Quarter
May 9
New
May 17
First Quarter

Hourly Weather History & Observations

Time (CDT) Temp. Windchill Dew Point Humidity Pressure Visibility Wind Dir Wind Speed Gust Speed Precip Events Conditions
12:53 AM 25.0 °F - 18.0 °F 75% 30.05 in 10.0 mi Calm Calm - N/A   Clear
1:53 AM 24.1 °F 19.7 °F 18.0 °F 77% 30.03 in 10.0 mi SSE 3.5 mph - N/A   Clear
2:53 AM 23.0 °F 18.4 °F 18.0 °F 81% 30.01 in 10.0 mi South 3.5 mph - N/A   Clear
3:53 AM 19.9 °F 13.4 °F 17.1 °F 89% 30.01 in 10.0 mi South 4.6 mph - N/A   Clear
4:53 AM 17.6 °F - 14.0 °F 86% 29.93 in 9.0 mi Calm Calm - N/A   Clear
5:53 AM 17.1 °F - 12.9 °F 84% 29.99 in 10.0 mi Calm Calm - N/A   Clear
6:53 AM 15.1 °F - 12.0 °F 88% 29.98 in 7.0 mi Calm Calm - N/A   Clear
7:53 AM 21.9 °F - 19.0 °F 89% 29.97 in 8.0 mi Calm Calm - N/A   Clear
8:18 AM 24.8 °F 20.5 °F 21.2 °F 86% 29.89 in 2.5 mi SSE 3.5 mph - N/A   Scattered Clouds
8:31 AM 24.8 °F 19.1 °F 21.2 °F 86% 29.89 in 9.0 mi SE 4.6 mph - N/A   Mostly Cloudy
8:53 AM 27.0 °F 21.6 °F 21.9 °F 81% 29.95 in 9.0 mi SE 4.6 mph - N/A   Mostly Cloudy
9:53 AM 30.0 °F 23.2 °F 25.0 °F 82% 29.96 in 9.0 mi West 6.9 mph - N/A   Overcast
10:20 AM 30.2 °F 25.4 °F 24.8 °F 80% 29.91 in 2.0 mi West 4.6 mph - 0.00 in Snow Light Snow
10:23 AM 28.4 °F 22.2 °F 24.8 °F 86% 29.91 in 0.8 mi West 5.8 mph - 0.00 in Snow Light Snow
10:33 AM 28.4 °F 22.2 °F 26.6 °F 93% 29.90 in 0.2 mi SW 5.8 mph - 0.00 in Fog , Snow Snow
10:51 AM 28.4 °F 23.3 °F 26.6 °F 93% 29.90 in 0.2 mi South 4.6 mph - 0.02 in Fog , Snow Snow
10:53 AM 28.9 °F 25.2 °F 27.0 °F 92% 29.96 in 0.5 mi South 3.5 mph - 0.02 in Fog , Snow Snow
11:00 AM 28.4 °F - 26.6 °F 93% 29.90 in 0.8 mi Calm Calm - 0.00 in Snow Light Snow
11:05 AM 28.4 °F - 26.6 °F 93% 29.89 in 1.5 mi Calm Calm - N/A Snow Light Snow
11:10 AM 30.2 °F - 28.4 °F 93% 29.89 in 3.0 mi Calm Calm - 0.00 in Snow Light Snow
11:23 AM 30.2 °F 26.7 °F 26.6 °F 86% 29.89 in 9.0 mi South 3.5 mph - 0.00 in   Overcast
11:53 AM 32.0 °F 28.7 °F 27.0 °F 82% 29.94 in 9.0 mi South 3.5 mph - 0.00 in   Overcast
12:53 PM 32.0 °F - 28.0 °F 85% 29.93 in 4.0 mi Calm Calm - 0.00 in Snow Light Snow
1:53 PM 34.0 °F 31.0 °F 26.1 °F 73% 29.92 in 10.0 mi Variable 3.5 mph - 0.00 in   Overcast
2:09 PM 35.6 °F - 24.8 °F 65% 29.86 in 10.0 mi Calm Calm - N/A   Overcast
2:53 PM 37.0 °F 33.3 °F 28.0 °F 70% 29.92 in 10.0 mi SW 4.6 mph - N/A   Overcast
3:53 PM 37.9 °F 32.1 °F 28.0 °F 68% 29.92 in 10.0 mi WSW 8.1 mph - N/A   Overcast
4:11 PM 37.4 °F 30.8 °F 26.6 °F 65% 29.85 in 10.0 mi West 9.2 mph - N/A   Overcast
4:53 PM 37.9 °F 31.5 °F 27.0 °F 65% 29.92 in 10.0 mi West 9.2 mph - N/A   Mostly Cloudy
5:53 PM 37.0 °F 28.9 °F 26.1 °F 65% 29.92 in 10.0 mi WNW 12.7 mph - N/A   Clear
6:53 PM 37.0 °F 28.1 °F 25.0 °F 62% 29.93 in 10.0 mi NW 15.0 mph - N/A   Partly Cloudy
7:30 PM 33.8 °F 23.9 °F 28.4 °F 81% 29.88 in 1.2 mi WNW 15.0 mph 26.5 mph 0.00 in Snow Light Snow
7:41 PM 32.0 °F 24.8 °F 28.4 °F 87% 29.87 in 4.0 mi NW 8.1 mph - 0.00 in Snow Light Snow
7:53 PM 32.0 °F 26.4 °F 28.9 °F 88% 29.94 in 10.0 mi NW 5.8 mph - 0.00 in   Scattered Clouds
8:53 PM 32.0 °F 24.2 °F 27.0 °F 82% 29.96 in 10.0 mi WNW 9.2 mph - N/A   Partly Cloudy
9:53 PM 30.0 °F 21.7 °F 26.1 °F 85% 29.99 in 10.0 mi WNW 9.2 mph - N/A   Clear
10:53 PM 30.0 °F 22.4 °F 27.0 °F 88% 30.01 in 10.0 mi WNW 8.1 mph - N/A   Partly Cloudy
11:09 PM 30.2 °F 21.9 °F 26.6 °F 86% 29.95 in 10.0 mi WNW 9.2 mph - N/A   Mostly Cloudy
11:16 PM 30.2 °F 21.9 °F 26.6 °F 86% 29.95 in 10.0 mi WNW 9.2 mph - N/A   Scattered Clouds
11:53 PM 30.9 °F 21.7 °F 28.0 °F 89% 30.02 in 10.0 mi WNW 11.5 mph - N/A   Mostly Cloudy